Date,Time,Wetness (Wet Dry or Ice),Wind Speed (m/s),Temperature (C),Humidity (%),Pressure (mb),Radiation (W/m^2)
2019-04-12,01:20:00,DRY,8.43,2.80,34.3,773.33,1.0
2019-04-12,01:25:00,DRY,8.95,2.75,30.5,773.50,1.1
2019-04-12,01:30:00,DRY,8.70,2.90,25.3,773.00,0.9
2019-04-12,01:35:00,DRY,9.20,2.75,20.0,773.00,1.0
2019-04-12,01:40:00,DRY,8.83,2.63,20.0,773.00,1.0
2019-04-12,01:45:00,DRY,8.70,2.45,22.5,773.00,1.0
2019-04-12,01:50:00,DRY,7.53,2.37,25.0,773.00,1.0
2019-04-12,01:55:00,DRY,9.15,2.15,35.0,773.00,1.4
2019-04-12,02:00:00,DRY,8.73,2.17,33.7,773.00,1.2
2019-04-12,02:05:00,DRY,8.25,2.25,26.5,773.00,1.7
2019-04-12,02:10:00,DRY,7.30,2.33,24.3,773.00,1.4
2019-04-12,02:15:00,DRY,6.65,2.35,29.0,773.00,1.1
2019-04-12,02:20:00,DRY,7.00,2.30,29.0,773.00,0.9
2019-04-12,02:25:00,DRY,7.05,2.50,31.5,773.00,0.9
2019-04-12,02:30:00,DRY,8.33,2.50,35.3,773.00,1.3
2019-04-12,02:35:00,DRY,7.45,2.30,40.5,773.00,1.2
2019-04-12,02:40:00,DRY,5.27,2.07,41.0,773.00,1.1
2019-04-12,02:45:00,DRY,7.60,2.35,40.0,773.00,1.0
2019-04-12,02:50:00,DRY,7.63,2.27,41.7,773.00,1.3
2019-04-12,02:55:00,DRY,6.55,2.10,46.5,773.00,0.9
2019-04-12,03:00:00,DRY,6.30,2.17,42.0,773.00,0.7
2019-04-12,03:05:00,DRY,7.80,2.35,35.5,773.00,2.2
2019-04-12,03:10:00,DRY,8.37,2.73,30.3,773.00,1.1
2019-04-12,03:15:00,DRY,6.30,2.60,29.5,773.00,1.2
2019-04-12,03:20:00,DRY,8.20,2.60,29.0,773.00,1.1
2019-04-12,03:25:00,DRY,5.75,2.80,30.0,773.00,0.8
2019-04-12,03:30:00,DRY,6.77,2.47,30.7,773.00,1.3
2019-04-12,03:35:00,DRY,5.05,2.65,31.5,773.00,2.0
2019-04-12,03:40:00,DRY,4.97,2.67,33.3,773.00,1.0
2019-04-12,03:45:00,DRY,6.00,2.65,35.0,773.00,1.2
2019-04-12,03:50:00,DRY,7.07,2.73,28.7,773.00,1.1
2019-04-12,03:55:00,DRY,4.90,2.85,27.5,773.00,1.7
2019-04-12,04:00:00,DRY,5.00,2.83,20.3,773.00,1.0
2019-04-12,04:05:00,DRY,9.20,3.05,20.5,772.50,1.4
2019-04-12,04:10:00,DRY,7.77,3.13,20.0,773.00,1.5
2019-04-12,04:15:00,DRY,8.15,3.45,20.5,772.00,1.4
2019-04-12,04:20:00,DRY,5.57,3.37,19.0,772.67,1.2
2019-04-12,04:25:00,DRY,8.00,2.95,17.5,772.00,1.4
2019-04-12,04:30:00,DRY,7.93,3.00,15.0,772.00,0.9
2019-04-12,04:35:00,DRY,7.55,3.10,16.5,772.50,1.1
2019-04-12,04:40:00,DRY,6.57,3.03,17.7,772.67,1.0
2019-04-12,04:45:00,DRY,8.20,3.40,17.5,772.50,0.9
2019-04-12,04:50:00,DRY,8.43,3.50,16.7,773.00,0.9
2019-04-12,04:55:00,DRY,9.80,3.65,17.0,773.00,1.1
2019-04-12,05:00:00,DRY,7.33,3.40,16.7,773.00,1.0
2019-04-12,05:05:00,DRY,6.80,3.25,16.0,773.00,1.1
2019-04-12,05:10:00,DRY,6.77,3.20,15.7,773.00,0.9
2019-04-12,05:15:00,DRY,7.40,3.25,15.0,773.00,1.0
2019-04-12,05:20:00,DRY,7.30,3.13,16.3,773.00,1.1
2019-04-12,05:25:00,DRY,7.05,3.45,19.5,773.00,1.1
2019-04-12,05:30:00,DRY,7.37,3.53,21.3,773.00,0.9
2019-04-12,05:35:00,DRY,7.45,3.50,25.0,773.00,1.2
2019-04-12,05:40:00,DRY,6.63,3.53,22.0,773.00,1.1
2019-04-12,05:45:00,DRY,5.75,3.55,26.5,773.00,1.4
2019-04-12,05:50:00,DRY,6.27,3.80,26.3,773.00,1.3
2019-04-12,05:55:00,DRY,5.40,3.55,24.5,773.00,1.0
2019-04-12,06:00:00,DRY,5.53,3.40,23.7,773.00,1.1
2019-04-12,06:05:00,DRY,6.95,3.50,26.0,773.00,1.2
2019-04-12,06:10:00,DRY,7.03,3.57,28.0,773.00,1.2
2019-04-12,06:15:00,DRY,6.90,3.55,28.0,773.00,0.9
2019-04-12,06:20:00,DRY,7.77,3.63,29.3,773.00,0.9
2019-04-12,06:25:00,DRY,6.15,3.65,29.0,773.00,1.2
2019-04-12,06:30:00,DRY,7.40,3.57,32.3,773.00,1.2
2019-04-12,06:35:00,DRY,7.80,3.30,27.0,773.00,1.5
2019-04-12,06:40:00,DRY,7.30,3.37,29.0,773.00,2.4
2019-04-12,06:45:00,DRY,8.00,3.30,32.0,773.00,4.6
2019-04-12,06:50:00,DRY,8.53,3.33,32.0,773.00,10.7
2019-04-12,06:55:00,DRY,7.00,3.35,34.5,773.00,20.2
2019-04-12,07:00:00,DRY,7.57,3.50,36.0,773.00,35.4
2019-04-12,07:05:00,DRY,7.05,3.45,36.5,773.00,55.1
2019-04-12,07:10:00,DRY,8.50,3.53,39.3,773.00,78.7
2019-04-12,07:15:00,DRY,6.55,3.50,38.5,773.00,103.1
2019-04-12,07:20:00,DRY,6.63,3.57,40.3,773.00,123.4
2019-04-12,07:25:00,DRY,7.40,3.60,41.0,773.00,143.1
2019-04-12,07:30:00,DRY,7.67,3.73,42.0,773.00,164.4
2019-04-12,07:35:00,DRY,7.35,3.80,43.5,773.00,185.5
2019-04-12,07:40:00,DRY,6.07,3.77,44.3,773.00,207.9
2019-04-12,07:45:00,DRY,8.95,3.80,45.0,773.00,230.6
2019-04-12,07:50:00,DRY,6.83,3.90,45.0,773.00,253.2
2019-04-12,07:55:00,DRY,8.30,4.00,43.5,773.00,276.2
2019-04-12,08:00:00,DRY,7.10,4.17,43.3,773.00,298.7
2019-04-12,08:05:00,DRY,6.10,4.30,43.0,773.00,322.3
2019-04-12,08:10:00,DRY,6.20,4.27,48.0,773.00,344.0
2019-04-12,08:15:00,DRY,7.60,4.15,49.0,773.00,366.9
2019-04-12,08:20:00,DRY,7.33,4.30,45.7,773.00,389.2
2019-04-12,08:25:00,DRY,7.20,4.65,41.5,773.00,411.9
2019-04-12,08:30:00,DRY,8.75,4.85,38.5,773.00,438.4
2019-04-12,08:35:00,DRY,6.50,4.90,40.5,773.50,455.6
2019-04-12,08:40:00,DRY,8.33,5.10,41.7,773.33,477.2
2019-04-12,08:45:00,DRY,8.50,5.20,43.0,773.00,499.9
2019-04-12,08:50:00,DRY,6.40,5.27,42.7,773.00,520.6
2019-04-12,08:55:00,DRY,7.50,5.35,42.5,773.00,541.6
2019-04-12,09:00:00,DRY,7.43,5.37,44.3,773.00,562.5
2019-04-12,09:05:00,DRY,7.20,5.30,45.5,773.50,584.0
2019-04-12,09:10:00,DRY,7.37,5.27,43.0,773.67,604.0
2019-04-12,09:15:00,DRY,6.70,5.25,41.5,773.50,625.0
2019-04-12,09:20:00,DRY,5.43,5.53,41.0,773.67,645.9
2019-04-12,09:25:00,DRY,6.45,5.60,43.0,774.00,665.2
2019-04-12,09:30:00,DRY,6.67,6.07,40.7,774.00,684.5
2019-04-12,09:35:00,DRY,6.50,6.05,40.0,774.00,703.9
2019-04-12,09:40:00,DRY,6.80,6.23,40.3,774.00,721.2
2019-04-12,09:45:00,DRY,6.60,6.45,40.5,774.00,740.1
2019-04-12,09:50:00,DRY,5.93,6.47,37.7,774.00,756.7
2019-04-12,09:55:00,DRY,5.05,6.60,36.5,774.00,774.2
2019-04-12,10:00:00,DRY,5.00,6.83,36.3,774.00,789.9
2019-04-12,10:05:00,DRY,7.75,7.00,35.5,774.00,807.2
2019-04-12,10:10:00,DRY,4.90,6.73,34.7,774.00,822.8
2019-04-12,10:15:00,DRY,5.45,7.05,38.0,774.00,837.4
2019-04-12,10:20:00,DRY,5.40,6.90,35.7,774.00,852.4
2019-04-12,10:25:00,DRY,6.20,7.10,36.5,774.00,867.7
2019-04-12,10:30:00,DRY,5.43,7.30,36.3,774.00,882.5
2019-04-12,10:35:00,DRY,6.75,7.50,34.5,774.00,896.6
2019-04-12,10:40:00,DRY,5.93,7.47,35.3,774.00,910.8
2019-04-12,10:45:00,DRY,5.65,7.20,34.5,774.00,922.5
2019-04-12,10:50:00,DRY,5.10,7.30,36.0,774.00,934.8
2019-04-12,10:55:00,DRY,5.00,7.25,35.5,774.00,947.6
2019-04-12,11:00:00,DRY,6.23,7.17,37.3,774.00,958.3
2019-04-12,11:05:00,DRY,5.50,7.60,36.5,774.00,969.7
2019-04-12,11:10:00,DRY,4.63,7.60,36.7,774.00,981.4
2019-04-12,11:15:00,DRY,6.30,7.80,35.0,774.00,991.2
2019-04-12,11:20:00,DRY,4.77,7.60,35.7,774.00,1002.5
2019-04-12,11:25:00,DRY,6.05,7.75,35.5,774.00,1011.8
2019-04-12,11:30:00,DRY,5.10,7.80,35.0,774.00,1022.6
2019-04-12,11:35:00,DRY,7.35,7.70,34.5,774.00,1030.6
2019-04-12,11:40:00,DRY,6.07,7.60,37.3,774.00,1040.7
2019-04-12,11:45:00,DRY,7.25,7.90,39.5,774.00,1047.8
2019-04-12,11:50:00,DRY,5.60,7.63,40.0,774.00,1055.4
2019-04-12,11:55:00,DRY,6.50,7.90,41.0,774.00,1062.0
2019-04-12,12:00:00,DRY,5.37,7.97,40.0,774.00,1068.7
2019-04-12,12:05:00,DRY,6.70,7.80,38.5,774.00,1074.4
2019-04-12,12:10:00,DRY,7.40,7.80,38.7,774.00,1080.5
2019-04-12,12:15:00,DRY,6.65,8.00,38.0,774.00,1084.7
2019-04-12,12:20:00,DRY,5.83,8.07,36.7,774.00,1091.2
2019-04-12,12:25:00,DRY,7.90,8.15,34.0,774.00,1094.8
2019-04-12,12:30:00,DRY,6.77,8.07,32.3,774.00,1097.8
2019-04-12,12:35:00,DRY,7.10,8.20,34.0,774.00,1102.7
2019-04-12,12:40:00,DRY,5.23,8.07,33.3,774.00,1105.1
2019-04-12,12:45:00,DRY,6.05,8.15,30.5,774.00,1108.3
2019-04-12,12:50:00,DRY,6.77,8.10,31.7,774.00,1110.1
2019-04-12,12:55:00,DRY,7.55,8.00,31.5,774.00,1111.4
2019-04-12,13:00:00,DRY,7.03,8.17,33.0,774.00,1113.2
2019-04-12,13:05:00,DRY,5.05,7.70,34.5,774.00,1114.2
2019-04-12,13:10:00,DRY,7.47,8.07,34.3,774.00,1114.1
2019-04-12,13:15:00,DRY,6.55,8.30,34.5,774.00,1113.9
2019-04-12,13:20:00,DRY,5.90,8.13,35.0,774.00,1113.3
2019-04-12,13:25:00,DRY,7.25,8.00,35.0,774.00,1112.0
2019-04-12,13:30:00,DRY,3.60,7.80,37.0,774.00,1110.0
2019-04-12,13:35:00,DRY,8.00,7.70,39.0,773.00,1106.2
2019-04-12,13:40:00,DRY,7.13,8.00,37.0,773.33,1104.5
2019-04-12,13:45:00,DRY,5.20,8.15,36.0,774.00,1101.5
2019-04-12,13:50:00,DRY,7.43,7.70,36.7,773.67,1098.5
2019-04-12,13:55:00,DRY,4.00,7.60,36.5,773.00,1094.8
2019-04-12,14:00:00,DRY,6.57,8.07,36.0,773.33,1091.1
2019-04-12,14:05:00,DRY,4.85,7.80,35.0,773.50,1086.0
2019-04-12,14:10:00,DRY,6.37,7.53,36.7,773.33,1080.6
2019-04-12,14:15:00,DRY,5.75,7.70,36.0,773.50,1075.8
2019-04-12,14:20:00,DRY,6.13,7.63,35.7,773.33,1069.8
2019-04-12,14:25:00,DRY,5.80,7.40,36.5,773.50,1061.8
2019-04-12,14:30:00,DRY,5.70,7.57,37.7,773.67,1054.2
2019-04-12,14:35:00,DRY,5.00,7.90,35.0,774.00,1047.6
2019-04-12,14:40:00,DRY,5.73,7.63,32.7,773.00,1039.0
2019-04-12,14:45:00,DRY,3.35,7.60,32.5,773.00,1031.7
2019-04-12,14:50:00,DRY,3.97,8.03,34.0,773.00,1022.2
2019-04-12,14:55:00,DRY,7.20,7.55,35.5,773.00,1011.3
2019-04-12,15:00:00,DRY,6.50,7.63,39.7,773.00,1000.8
2019-04-12,15:05:00,DRY,6.05,7.95,42.0,773.00,990.1
2019-04-12,15:10:00,DRY,5.87,7.87,44.3,773.00,979.5
2019-04-12,15:15:00,DRY,5.15,7.70,47.0,773.00,966.8
2019-04-12,15:20:00,DRY,5.93,7.87,46.3,773.00,953.9
2019-04-12,15:25:00,DRY,4.95,7.70,50.0,773.00,941.1
2019-04-12,15:30:00,DRY,4.43,7.23,50.3,773.00,927.8
2019-04-12,15:35:00,DRY,5.55,7.40,50.5,773.00,913.8
2019-04-12,15:40:00,DRY,4.33,7.43,50.3,773.00,899.2
2019-04-12,15:45:00,DRY,4.15,7.75,49.0,773.00,885.6
2019-04-12,15:50:00,DRY,5.77,7.40,49.0,773.00,871.1
2019-04-12,15:55:00,DRY,4.85,7.20,48.5,773.00,855.9
2019-04-12,16:00:00,DRY,5.07,7.50,49.3,773.00,840.2
2019-04-12,16:05:00,DRY,5.55,7.20,51.0,773.00,824.2
2019-04-12,16:10:00,DRY,5.33,7.27,49.7,773.00,808.1
2019-04-12,16:15:00,DRY,6.50,7.40,52.0,773.00,790.4
2019-04-12,16:20:00,DRY,4.93,7.37,52.3,773.00,772.8
2019-04-12,16:25:00,DRY,5.55,7.50,52.5,773.00,756.3
2019-04-12,16:30:00,DRY,4.87,7.17,53.3,773.00,739.0
2019-04-12,16:35:00,DRY,5.60,6.80,55.0,773.00,720.1
2019-04-12,16:40:00,DRY,5.63,6.80,55.7,773.00,701.7
2019-04-12,16:45:00,DRY,6.55,6.80,55.5,773.00,683.8
2019-04-12,16:50:00,DRY,5.70,6.67,55.7,773.00,663.8
2019-04-12,16:55:00,DRY,4.55,6.60,54.0,773.00,645.0
2019-04-12,17:00:00,DRY,5.53,6.80,54.7,773.00,625.3
2019-04-12,17:05:00,DRY,5.20,7.00,54.5,773.00,605.1
2019-04-12,17:10:00,DRY,5.17,6.63,55.3,773.00,583.7
2019-04-12,17:15:00,DRY,5.55,6.35,55.0,773.00,564.2
2019-04-12,17:20:00,DRY,5.80,6.33,55.7,773.00,543.8
2019-04-12,17:25:00,DRY,4.55,6.35,55.5,773.00,523.2
2019-04-12,17:30:00,DRY,4.83,6.23,56.0,773.00,501.0
2019-04-12,17:35:00,DRY,5.10,6.10,57.0,773.00,480.1
2019-04-12,17:40:00,DRY,6.67,6.03,56.7,773.00,458.3
2019-04-12,17:45:00,DRY,7.65,5.50,58.0,773.00,437.4
2019-04-12,17:50:00,DRY,6.73,5.57,58.7,773.00,415.3
2019-04-12,17:55:00,DRY,5.10,5.55,58.0,773.00,394.2
2019-04-12,18:00:00,DRY,4.93,5.73,57.3,773.00,370.7
2019-04-12,18:05:00,DRY,5.85,5.45,58.0,773.00,335.2
2019-04-12,18:10:00,DRY,5.37,5.53,58.7,773.00,323.8
2019-04-12,18:15:00,DRY,5.10,5.40,58.0,773.00,302.4
2019-04-12,18:20:00,DRY,4.97,5.63,57.0,773.00,278.7
2019-04-12,18:25:00,DRY,5.50,5.65,56.5,773.50,258.4
2019-04-12,18:30:00,DRY,6.53,5.47,56.0,773.00,238.5
2019-04-12,18:35:00,DRY,6.80,5.50,56.5,773.00,195.7
2019-04-12,18:40:00,DRY,5.53,5.40,55.0,773.00,36.5
2019-04-12,18:45:00,DRY,6.15,5.30,53.5,773.00,31.6
2019-04-12,18:50:00,DRY,5.93,5.33,55.7,773.00,28.3
2019-04-12,18:55:00,DRY,6.20,5.10,55.0,773.00,26.6
2019-04-12,19:00:00,DRY,5.73,5.17,56.0,773.33,24.9
2019-04-12,19:05:00,DRY,6.90,5.00,56.0,773.00,22.4
2019-04-12,19:10:00,DRY,7.27,4.80,57.0,773.00,19.7
2019-04-12,19:15:00,DRY,5.85,4.65,58.0,773.00,17.4
2019-04-12,19:20:00,DRY,7.20,4.63,57.7,773.00,15.6
2019-04-12,19:25:00,DRY,5.55,4.50,58.5,773.00,12.3
2019-04-12,19:30:00,DRY,7.27,4.47,58.7,773.00,10.2
2019-04-12,19:35:00,DRY,6.95,4.60,57.0,773.00,7.1
2019-04-12,19:40:00,DRY,7.43,4.60,56.0,774.00,4.3
2019-04-12,19:45:00,DRY,6.00,4.65,55.0,774.00,3.3
2019-04-12,19:50:00,DRY,7.10,4.47,56.3,774.00,2.2
2019-04-12,19:55:00,DRY,5.20,4.35,58.5,774.00,1.5
2019-04-12,20:00:00,DRY,6.97,4.40,57.3,774.00,1.3
2019-04-12,20:05:00,DRY,6.20,4.40,55.5,774.00,1.3
2019-04-12,20:10:00,DRY,7.00,4.40,56.7,774.00,1.2
2019-04-12,20:15:00,DRY,5.70,4.30,58.5,774.00,1.3
2019-04-12,20:20:00,DRY,8.10,4.07,61.3,774.00,1.2
2019-04-12,20:25:00,DRY,6.25,3.75,64.5,774.00,1.2
2019-04-12,20:30:00,DRY,6.10,3.63,66.0,774.00,1.6
2019-04-12,20:35:00,DRY,7.20,3.45,68.5,774.00,1.8
2019-04-12,20:40:00,DRY,6.87,3.33,71.0,774.00,1.6
2019-04-12,20:45:00,,,,,,
2019-04-12,20:50:00,DRY,3.60,3.30,70.0,774.00,2.2
2019-04-12,20:55:00,DRY,7.35,3.35,69.0,774.00,1.4
2019-04-12,21:00:00,DRY,7.07,3.30,71.0,774.00,1.4
2019-04-12,21:05:00,DRY,6.05,3.20,71.0,774.00,1.4
2019-04-12,21:10:00,DRY,6.47,3.23,67.7,774.00,1.3
2019-04-12,21:15:00,DRY,7.10,3.35,66.5,774.00,1.2
2019-04-12,21:20:00,DRY,6.73,3.37,68.3,774.00,1.1
2019-04-12,21:25:00,DRY,9.10,3.35,65.5,774.00,1.0
2019-04-12,21:30:00,DRY,6.40,3.23,69.0,774.00,1.1
2019-04-12,21:35:00,DRY,7.10,3.25,67.0,774.00,1.1
2019-04-12,21:40:00,DRY,7.40,3.33,66.7,774.00,1.8
2019-04-12,21:45:00,DRY,4.65,3.30,68.5,774.00,0.8
2019-04-12,21:50:00,DRY,7.50,3.20,70.3,774.67,1.2
2019-04-12,21:55:00,DRY,7.20,3.20,68.0,774.00,1.2
2019-04-12,22:00:00,DRY,7.83,3.40,61.0,774.00,1.2
2019-04-12,22:05:00,DRY,8.40,3.45,59.5,774.50,2.1
2019-04-12,22:10:00,DRY,7.50,3.47,58.3,774.67,1.0
2019-04-12,22:15:00,DRY,5.65,3.60,55.5,774.00,1.0
2019-04-12,22:20:00,DRY,7.30,3.57,55.3,774.33,1.2
2019-04-12,22:25:00,DRY,6.60,3.50,56.5,774.50,1.2
2019-04-12,22:30:00,DRY,6.30,3.57,53.7,774.67,1.1
2019-04-12,22:35:00,DRY,6.90,3.65,53.0,775.00,1.7
2019-04-12,22:40:00,DRY,6.87,3.73,51.3,775.00,1.8
2019-04-12,22:45:00,DRY,8.15,3.75,51.0,775.00,1.2
2019-04-12,22:50:00,DRY,8.10,3.87,48.0,774.67,1.2
2019-04-12,22:55:00,DRY,7.50,3.85,48.0,774.50,0.9
2019-04-12,23:00:00,DRY,7.23,3.90,47.0,775.00,1.3
2019-04-12,23:05:00,DRY,7.45,4.00,46.5,775.00,1.2
2019-04-12,23:10:00,DRY,7.70,4.03,45.7,775.00,1.3
2019-04-12,23:15:00,DRY,7.15,4.10,46.0,775.00,1.1
2019-04-12,23:20:00,DRY,6.07,4.00,46.3,774.67,1.0
2019-04-12,23:25:00,DRY,6.70,4.10,46.5,774.00,1.2
2019-04-12,23:30:00,DRY,7.90,3.83,48.0,774.00,1.4
2019-04-12,23:35:00,DRY,8.50,3.75,50.0,774.50,1.2
2019-04-12,23:40:00,DRY,7.33,3.57,51.0,774.00,1.2
2019-04-12,23:45:00,DRY,8.45,3.65,51.0,774.00,1.2
2019-04-12,23:50:00,DRY,7.67,3.60,50.7,774.00,1.2
2019-04-12,23:55:00,DRY,5.80,3.70,51.5,774.00,1.1
2019-04-13,00:00:00,DRY,8.23,3.83,49.7,774.00,1.3
2019-04-13,00:05:00,DRY,7.20,3.80,49.0,774.00,1.1
2019-04-13,00:10:00,DRY,7.93,3.77,51.0,774.00,1.4
2019-04-13,00:15:00,DRY,6.20,3.75,50.5,774.00,1.8
2019-04-13,00:20:00,DRY,6.97,3.90,47.7,774.00,1.5
2019-04-13,00:25:00,DRY,8.00,4.00,47.5,774.00,1.3
2019-04-13,00:30:00,DRY,10.10,4.07,47.0,774.00,1.3
2019-04-13,00:35:00,DRY,5.70,4.00,48.0,774.00,1.4
2019-04-13,00:40:00,DRY,7.50,3.73,51.0,774.00,1.9
2019-04-13,00:45:00,DRY,6.45,3.55,52.5,774.00,1.2
2019-04-13,00:50:00,DRY,8.57,3.60,51.3,774.00,1.4
2019-04-13,00:55:00,DRY,7.60,3.60,52.0,774.00,0.9
2019-04-13,01:00:00,DRY,7.60,3.50,54.7,774.00,1.2
2019-04-13,01:05:00,DRY,7.95,3.50,53.0,774.00,1.0
2019-04-13,01:10:00,DRY,6.87,3.53,55.0,774.00,0.5
2019-04-13,01:15:00,DRY,8.40,3.35,59.0,774.00,1.0
2019-04-13,01:20:00,DRY,7.77,3.47,55.3,774.00,1.2
2019-04-13,01:25:00,DRY,9.35,3.80,51.5,774.00,1.1
2019-04-13,01:30:00,DRY,7.23,3.93,49.0,774.00,1.3
2019-04-13,01:35:00,DRY,7.80,3.95,49.5,774.00,1.1
2019-04-13,01:40:00,DRY,6.60,3.97,48.0,774.00,1.3
2019-04-13,01:45:00,DRY,7.40,4.00,48.5,774.00,1.3
2019-04-13,01:50:00,DRY,7.37,4.03,47.7,774.00,1.1
2019-04-13,01:55:00,DRY,7.75,4.10,47.0,774.00,1.1
2019-04-13,02:00:00,DRY,8.80,4.30,46.0,773.67,1.0
2019-04-13,02:05:00,DRY,7.65,4.55,45.5,773.50,1.1
2019-04-13,02:10:00,DRY,5.53,4.47,44.7,773.67,1.4
2019-04-13,02:15:00,DRY,7.40,4.65,43.0,773.50,1.5
2019-04-13,02:20:00,DRY,7.20,4.60,43.0,773.67,1.2
2019-04-13,02:25:00,DRY,5.95,4.55,44.5,773.00,1.4
2019-04-13,02:30:00,DRY,6.43,4.33,45.7,773.00,0.9
2019-04-13,02:35:00,DRY,7.90,4.25,45.5,773.00,1.2
2019-04-13,02:40:00,DRY,8.07,4.53,43.3,773.00,0.9
2019-04-13,02:45:00,DRY,7.20,4.60,43.5,773.00,0.9
2019-04-13,02:50:00,DRY,5.80,4.63,42.3,773.00,1.0
2019-04-13,02:55:00,DRY,7.05,4.65,41.5,773.00,1.1
2019-04-13,03:00:00,DRY,7.73,4.80,40.7,773.00,1.0
2019-04-13,03:05:00,DRY,7.70,4.95,38.0,773.00,1.1
2019-04-13,03:10:00,DRY,7.53,4.93,39.7,773.00,1.3
2019-04-13,03:15:00,DRY,7.00,4.75,41.0,773.00,1.2
2019-04-13,03:20:00,DRY,8.30,4.70,42.3,773.00,1.2
2019-04-13,03:25:00,DRY,7.00,4.50,43.0,773.00,1.2
2019-04-13,03:30:00,DRY,6.90,4.13,46.3,773.00,1.2
2019-04-13,03:35:00,DRY,7.30,4.05,48.5,773.00,0.6
2019-04-13,03:40:00,DRY,7.20,4.17,46.0,773.00,1.1
2019-04-13,03:45:00,DRY,6.90,4.40,43.5,773.00,1.4
2019-04-13,03:50:00,DRY,8.05,4.60,41.5,773.00,1.1
2019-04-13,03:55:00,DRY,7.15,4.75,42.0,773.00,2.8
2019-04-13,04:00:00,DRY,7.47,4.60,43.7,773.00,1.2
2019-04-13,04:05:00,DRY,6.55,4.75,41.0,773.00,1.1
2019-04-13,04:10:00,DRY,9.20,4.90,39.0,773.00,1.1
2019-04-13,04:15:00,DRY,6.85,5.10,36.5,773.00,1.1
2019-04-13,04:20:00,DRY,7.03,5.17,36.0,773.00,1.2
2019-04-13,04:25:00,DRY,7.65,5.05,37.0,773.00,0.9
2019-04-13,04:30:00,DRY,7.50,5.13,35.3,773.00,1.1
2019-04-13,04:35:00,DRY,8.40,5.15,36.0,773.00,1.1
2019-04-13,04:40:00,DRY,6.70,5.17,36.0,773.00,1.3
2019-04-13,04:45:00,DRY,8.15,5.25,34.5,773.00,1.2
2019-04-13,04:50:00,DRY,7.83,5.27,36.7,773.00,0.9
2019-04-13,04:55:00,DRY,7.25,5.25,36.0,773.00,0.7
2019-04-13,05:00:00,DRY,7.33,5.43,35.3,773.00,1.0
2019-04-13,05:05:00,DRY,5.40,5.45,34.5,773.00,1.3
2019-04-13,05:10:00,DRY,5.23,5.47,35.7,773.00,1.1
2019-04-13,05:15:00,DRY,6.45,5.35,39.5,773.00,1.2
2019-04-13,05:20:00,DRY,8.23,5.40,37.7,773.00,1.0
2019-04-13,05:25:00,DRY,7.25,5.35,39.0,773.00,1.1
2019-04-13,05:30:00,DRY,6.87,5.47,36.0,773.00,1.2
2019-04-13,05:35:00,DRY,8.30,5.50,35.5,773.00,0.8
2019-04-13,05:40:00,DRY,8.40,5.50,35.3,773.00,1.1
2019-04-13,05:45:00,DRY,6.75,5.60,34.0,773.00,1.1
2019-04-13,05:50:00,DRY,7.70,5.63,33.7,773.00,1.2
2019-04-13,05:55:00,DRY,6.45,5.75,33.0,773.00,1.4
2019-04-13,06:00:00,DRY,7.70,5.83,31.7,773.00,1.6
2019-04-13,06:05:00,DRY,6.65,5.90,31.5,773.00,1.2
2019-04-13,06:10:00,DRY,6.93,5.87,31.0,773.00,1.0
2019-04-13,06:15:00,DRY,7.20,6.00,31.0,773.00,1.2
2019-04-13,06:20:00,DRY,7.57,6.13,30.7,773.00,1.1
2019-04-13,06:25:00,DRY,6.05,6.25,30.5,773.00,1.2
2019-04-13,06:30:00,DRY,7.33,6.30,30.0,773.00,1.3
2019-04-13,06:35:00,DRY,6.35,6.30,30.0,773.00,2.0
2019-04-13,06:40:00,DRY,6.70,6.30,30.0,773.00,3.0
2019-04-13,06:45:00,DRY,6.50,6.30,30.0,773.00,5.7
2019-04-13,06:50:00,DRY,8.23,6.30,30.0,773.33,11.6
2019-04-13,06:55:00,DRY,5.25,6.30,30.0,774.00,22.4
2019-04-13,07:00:00,DRY,8.17,6.37,30.0,774.00,37.7
2019-04-13,07:05:00,DRY,5.35,6.50,30.0,774.00,58.4
2019-04-13,07:10:00,DRY,6.47,6.43,30.3,774.00,82.4
2019-04-13,07:15:00,DRY,5.60,6.35,30.5,774.00,106.0
2019-04-13,07:20:00,DRY,6.17,6.50,30.0,774.00,124.9
2019-04-13,07:25:00,DRY,5.45,6.70,29.5,774.00,144.8
2019-04-13,07:30:00,DRY,5.83,6.70,29.7,774.00,165.6
2019-04-13,07:35:00,DRY,5.05,6.75,30.0,774.00,187.4
2019-04-13,07:40:00,DRY,5.87,6.70,30.0,774.00,209.7
2019-04-13,07:45:00,DRY,7.25,6.60,30.0,774.00,230.8
2019-04-13,07:50:00,DRY,6.77,6.50,31.0,774.00,252.8
2019-04-13,07:55:00,DRY,8.80,6.65,30.5,774.00,274.8
2019-04-13,08:00:00,DRY,6.77,6.67,31.7,774.00,298.0
2019-04-13,08:05:00,DRY,6.30,6.75,30.5,774.00,319.8
2019-04-13,08:10:00,DRY,5.53,7.07,30.3,774.00,342.4
2019-04-13,08:15:00,DRY,5.60,7.05,30.5,774.00,364.2
2019-04-13,08:20:00,DRY,7.43,7.20,30.0,774.00,386.0
2019-04-13,08:25:00,DRY,7.25,7.35,29.5,774.00,409.5
2019-04-13,08:30:00,DRY,5.97,7.33,30.3,774.00,430.7
2019-04-13,08:35:00,DRY,4.50,7.45,31.0,774.00,453.4
2019-04-13,08:40:00,DRY,5.43,7.40,31.7,774.00,473.5
2019-04-13,08:45:00,DRY,6.80,7.50,30.0,774.00,494.7
2019-04-13,08:50:00,DRY,6.77,7.43,31.7,774.00,516.3
2019-04-13,08:55:00,DRY,7.10,7.70,31.0,774.00,537.4
2019-04-13,09:00:00,DRY,5.93,7.97,31.0,774.00,558.0
2019-04-13,09:05:00,DRY,5.65,7.95,32.0,774.00,578.5
2019-04-13,09:10:00,DRY,6.47,8.13,32.3,774.00,597.8
2019-04-13,09:15:00,DRY,6.85,8.30,31.5,774.00,618.3
2019-04-13,09:20:00,DRY,4.03,8.27,33.3,774.00,637.8
2019-04-13,09:25:00,DRY,4.65,8.35,34.5,774.00,656.9
2019-04-13,09:30:00,DRY,3.77,8.37,34.3,774.00,675.3
2019-04-13,09:35:00,DRY,5.65,8.60,33.5,774.00,694.2
2019-04-13,09:40:00,DRY,3.97,8.80,33.3,774.00,712.7
2019-04-13,09:45:00,DRY,4.90,8.55,37.0,774.00,730.5
2019-04-13,09:50:00,DRY,4.13,8.70,34.7,774.00,747.9
2019-04-13,09:55:00,DRY,4.15,8.90,34.5,774.00,763.4
2019-04-13,10:00:00,DRY,4.57,9.00,34.0,774.00,780.2
2019-04-13,10:05:00,DRY,6.35,8.85,34.0,774.00,795.9
2019-04-13,10:10:00,DRY,3.87,9.00,34.0,774.00,812.6
2019-04-13,10:15:00,DRY,4.90,9.20,34.0,774.00,827.0
2019-04-13,10:20:00,DRY,4.53,9.33,34.3,774.00,842.7
2019-04-13,10:25:00,DRY,5.05,9.10,34.5,774.00,858.3
2019-04-13,10:30:00,DRY,4.47,9.23,33.3,774.00,872.1
2019-04-13,10:35:00,DRY,5.20,9.45,34.5,774.00,887.2
2019-04-13,10:40:00,DRY,4.73,9.00,35.0,774.00,900.2
2019-04-13,10:45:00,DRY,3.95,9.25,35.5,774.00,913.7
2019-04-13,10:50:00,DRY,3.60,8.80,36.3,774.00,925.2
2019-04-13,10:55:00,DRY,3.95,9.05,35.0,774.00,937.4
2019-04-13,11:00:00,DRY,3.37,8.73,35.7,774.00,950.4
2019-04-13,11:05:00,DRY,4.85,8.85,34.5,774.00,960.7
2019-04-13,11:10:00,DRY,3.67,8.83,34.7,774.00,971.8
2019-04-13,11:15:00,DRY,3.90,8.80,37.0,774.00,982.7
2019-04-13,11:20:00,DRY,3.00,9.33,36.3,774.00,994.1
2019-04-13,11:25:00,DRY,4.05,9.65,35.5,774.00,1002.5
2019-04-13,11:30:00,DRY,2.37,9.90,36.3,774.00,1013.8
2019-04-13,11:35:00,DRY,2.60,9.60,34.5,774.00,1022.2
2019-04-13,11:40:00,DRY,1.67,10.07,35.7,774.00,1031.9
2019-04-13,11:45:00,DRY,1.35,10.15,35.0,774.00,1041.0
2019-04-13,11:50:00,DRY,1.30,10.67,39.7,774.00,1048.0
2019-04-13,11:55:00,DRY,2.85,10.75,40.5,774.00,1054.8
2019-04-13,12:00:00,DRY,2.27,10.50,40.7,774.00,1062.5
2019-04-13,12:05:00,DRY,2.60,10.30,44.5,774.00,1064.9
2019-04-13,12:10:00,DRY,1.60,10.77,37.7,774.00,1072.6
2019-04-13,12:15:00,DRY,4.45,10.65,38.5,774.00,1077.7
2019-04-13,12:20:00,DRY,1.97,10.77,40.0,774.00,1083.8
2019-04-13,12:25:00,DRY,1.70,10.05,45.5,774.00,1087.4
2019-04-13,12:30:00,DRY,3.10,10.67,40.0,774.00,1091.5
2019-04-13,12:35:00,DRY,1.85,11.10,41.5,774.00,1094.5
2019-04-13,12:40:00,DRY,2.47,11.63,37.3,774.00,1099.0
2019-04-13,12:45:00,DRY,3.55,11.10,41.0,774.00,1101.8
2019-04-13,12:50:00,DRY,2.53,11.50,41.7,774.00,1103.8
2019-04-13,12:55:00,DRY,2.65,11.35,39.5,774.00,1106.2
2019-04-13,13:00:00,DRY,3.23,11.17,37.0,774.00,1106.8
2019-04-13,13:05:00,DRY,5.00,11.70,39.0,774.00,1107.2
2019-04-13,13:10:00,DRY,2.47,11.13,46.3,774.00,1107.8
2019-04-13,13:15:00,DRY,2.85,11.05,43.0,774.00,1105.2
2019-04-13,13:20:00,DRY,1.27,10.80,46.7,774.00,1108.2
2019-04-13,13:25:00,DRY,1.85,11.25,42.5,774.00,1107.2
2019-04-13,13:30:00,DRY,2.50,11.10,49.0,774.00,1101.4
2019-04-13,13:35:00,DRY,3.00,11.30,35.0,774.00,1106.0
2019-04-13,13:40:00,DRY,3.03,11.77,36.3,774.00,1100.4
2019-04-13,13:45:00,DRY,2.00,11.85,39.5,774.00,1100.2
2019-04-13,13:50:00,DRY,2.13,12.17,36.0,774.00,1093.3
2019-04-13,13:55:00,DRY,1.90,12.90,31.0,774.00,1090.1
2019-04-13,14:00:00,DRY,3.30,12.80,33.3,774.00,1086.3
2019-04-13,14:05:00,DRY,1.90,12.45,31.0,774.00,1083.0
2019-04-13,14:10:00,DRY,3.13,12.27,31.7,774.00,1075.6
2019-04-13,14:15:00,DRY,2.10,11.80,36.0,774.00,1072.0
2019-04-13,14:20:00,DRY,3.03,12.20,34.3,774.00,1063.0
2019-04-13,14:25:00,DRY,2.65,11.70,30.0,774.00,1056.9
2019-04-13,14:30:00,DRY,1.80,12.40,32.3,774.00,1050.7
2019-04-13,14:35:00,DRY,2.30,12.75,32.0,774.00,1040.9
2019-04-13,14:40:00,DRY,2.00,13.03,42.0,773.67,1032.0
2019-04-13,14:45:00,DRY,2.35,11.85,48.5,773.00,1022.8
2019-04-13,14:50:00,DRY,2.00,11.97,51.3,773.33,1011.6
2019-04-13,14:55:00,DRY,1.30,11.70,57.5,773.00,1004.5
2019-04-13,15:00:00,DRY,1.77,11.57,51.7,773.00,997.6
2019-04-13,15:05:00,DRY,1.40,11.75,51.0,773.00,984.9
2019-04-13,15:10:00,DRY,2.03,11.77,47.3,773.00,976.0
2019-04-13,15:15:00,DRY,1.85,12.05,50.5,773.00,959.2
2019-04-13,15:20:00,DRY,2.60,12.43,59.0,773.00,951.7
2019-04-13,15:25:00,DRY,2.75,11.95,55.0,773.00,937.0
2019-04-13,15:30:00,DRY,1.87,11.40,61.0,773.00,930.3
2019-04-13,15:35:00,DRY,1.80,11.55,63.0,773.00,916.7
2019-04-13,15:40:00,DRY,1.87,11.33,64.3,773.00,902.2
2019-04-13,15:45:00,DRY,2.65,11.05,73.5,773.00,886.5
2019-04-13,15:50:00,DRY,2.13,11.03,72.0,773.00,875.7
2019-04-13,15:55:00,DRY,1.50,10.95,67.5,773.00,859.6
2019-04-13,16:00:00,DRY,1.17,11.97,66.7,773.00,844.1